Orbital Elements
Epoch 2024 Mar. 31.0 TT = JDT 2460400.5
T 2025 May 24.89641 TT Rudenko
q 1.2264232 (2000.0) P Q
n 0.12571000 Peri. 247.00966 +0.95786313 -0.22260588
a 3.9465975 Node 125.38324 +0.26615310 +0.92548408
e 0.6892454 Incl. 12.86337 -0.10798493 +0.30647323
P 7.84
>From 3384 observations 2001 June 21-2024 May 1, mean residual 0".6.
Nongravitational parameters A1 = +0.16, A2 = +0.0030.
|